Flag for Brazil

Past Weather in Fortaleza, Ceará, Brazil — Yesterday and Last 2 Weeks

Now
84 °F

Passing clouds.


Feels Like: 88 °F
Forecast: 87 / 78 °F
Wind: 16 mph from East

Location: Fortaleza Aeropor-To

Current Time: Jul 3, 2020 at 5:09:53 pm

Latest Report: Jul 3, 2020 at 4:00 pm


Visibility: N/A

Pressure: 29.89 "Hg

Humidity: 62%

Dew Point: 70 °F

Location of FortalezaLocation

Past Weather in Fortaleza — Graph

°F

Fortaleza Temperature Yesterday

Maximum temperature yesterday: 86 °F (at 10:00 am)
Minimum temperature yesterday: 77 °F (at 3:00 am)
Average temperature yesterday: 81 °F

High & Low Weather Summary for the Past Weeks

 TemperatureHumidityPressure
High88 °F (Jun 20, 12:00 pm)94% (Jun 19, 5:00 am)29.98 "Hg (Jun 19, 5:00 am)
Low73 °F (Jun 21, 5:00 am)49% (Jun 23, 3:00 pm)29.83 "Hg (Jun 22, 5:00 pm)
Average81 °F73%29.90 "Hg
* Reported Jun 18 4:00 pm — Jul 3 4:00 pm, Fortaleza. Weather by CustomWeather, © 2020

Note: Actual official high and low records may vary slightly from our data, if they occured in-between our weather recording intervals... More about our weather records

Fortaleza Weather History for the Previous 24 Hours

Scroll right to see more
 ConditionsComfort  
Time TempWeatherWind HumidityBarometerVisibility
4:00 pm
Fri, Jul 3
84 °FPassing clouds.16 mph62%29.89 "HgN/A
3:00 pm84 °FScattered clouds.17 mph66%29.89 "HgN/A
2:00 pm82 °FBroken clouds.15 mph74%29.89 "HgN/A
1:00 pm81 °FBroken clouds.18 mph74%29.92 "HgN/A
12:00 pm81 °FPartly sunny.17 mph74%29.95 "HgN/A
11:00 am81 °FPartly sunny.12 mph79%29.95 "HgN/A
10:00 am82 °FPartly sunny.14 mph74%29.95 "HgN/A
9:00 am82 °FPartly sunny.16 mph74%29.95 "HgN/A
8:00 am81 °FScattered clouds.9 mph84%29.95 "HgN/A
7:00 am79 °FScattered clouds.7 mph84%29.92 "HgN/A
6:00 am77 °FScattered clouds.6 mph89%29.89 "HgN/A
5:00 am79 °FPassing clouds.8 mph89%29.89 "HgN/A
4:00 am79 °FPassing clouds.7 mph84%29.89 "HgN/A
3:00 am81 °FPassing clouds.8 mph79%29.89 "HgN/A
2:00 am79 °FPassing clouds.8 mph84%29.89 "HgN/A
1:00 am81 °FPassing clouds.9 mph79%29.92 "HgN/A
12:00 am81 °FPassing clouds.8 mph79%29.92 "HgN/A
11:00 pm
Thu, Jul 2
81 °FPassing clouds.8 mph79%29.92 "HgN/A
10:00 pm81 °FPassing clouds.12 mph79%29.92 "HgN/A
9:00 pm79 °FPassing clouds.8 mph84%29.92 "HgN/A
8:00 pm79 °FClear.8 mph84%29.89 "Hg10 mi
7:00 pm79 °FClear.8 mph84%29.89 "Hg10 mi
6:00 pm81 °FClear.9 mph74%29.86 "Hg10 mi
5:00 pm82 °FSunny.14 mph70%29.83 "Hg10 mi
Weather by CustomWeather, © 2020

See weather overview